N3TJJ-11 Weather Reports


time (UTC)temp
C
wind
direction
speed
KPH
gust
KPH
rain 1hr
cm
rain 24hr
cm
rain mn
cm
humidity
%
barometer
mb
20260505040346 15 241 9.7 14.5 0.00 0.00 0.00 65 1008.4
20260505035945 15 242 9.7 19.3 0.00 0.00 0.00 65 1008.3
20260505035346 15 220 9.7 17.7 0.00 0.00 0.00 65 1008.3
20260505034745 15 192 8.0 14.5 0.00 0.00 0.00 65 1008.3
20260505034347 15 231 8.0 16.1 0.00 0.00 0.00 64 1008.2
20260505033545 15 158 9.7 14.5 0.00 0.00 0.00 63 1008.2
20260505033346 15 214 9.7 14.5 0.00 0.00 0.00 63 1008.1
20260505032345 15 173 8.0 17.7 0.00 0.00 0.00 63 1008.2
20260505031346 15 238 9.7 16.1 0.00 0.00 0.00 62 1008.3
20260505031145 15 212 9.7 19.3 0.00 0.00 0.00 62 1008.4
20260505030347 15 175 8.0 20.9 0.00 0.00 0.00 62 1008.4
20260505025945 15 218 8.0 16.1 0.00 0.00 0.00 62 1008.4
20260505025346 15 214 6.4 14.5 0.00 0.00 0.00 62 1008.5
20260505024745 15 188 6.4 12.9 0.00 0.00 0.00 63 1008.5
20260505024346 15 240 6.4 16.1 0.00 0.00 0.00 62 1008.4
20260505023545 15 218 6.4 11.3 0.00 0.00 0.00 62 1008.4
20260505023346 15 196 6.4 11.3 0.00 0.00 0.00 62 1008.4
20260505022345 15 198 6.4 14.5 0.00 0.00 0.00 61 1008.4
20260505021346 15 185 6.4 16.1 0.00 0.00 0.00 61 1008.4
20260505021145 15 239 6.4 16.1 0.00 0.00 0.00 60 1008.4
20260505020347 15 188 6.4 11.3 0.00 0.00 0.00 59 1008.4
20260505015945 16 236 8.0 11.3 0.00 0.00 0.00 59 1008.5
20260505015346 16 157 8.0 16.1 0.00 0.00 0.00 59 1008.6
20260505014745 16 235 6.4 17.7 0.00 0.00 0.00 58 1008.5
20260505014346 16 194 6.4 16.1 0.00 0.00 0.00 58 1008.5
20260505013545 16 199 8.0 17.7 0.00 0.00 0.00 57 1008.6
20260505013347 16 177 8.0 17.7 0.00 0.00 0.00 57 1008.5
20260505012345 16 243 9.7 24.1 0.00 0.00 0.00 56 1008.3
20260505011348 16 240 8.0 17.7 0.00 0.00 0.00 55 1008.1
20260505011145 16 134 8.0 17.7 0.00 0.00 0.00 56 1008.1
20260505010347 16 199 9.7 17.7 0.00 0.00 0.00 55 1008.0
20260505005945 16 161 9.7 20.9 0.00 0.00 0.00 54 1008.0
20260505005354 16 238 9.7 19.3 0.00 0.00 0.00 54 1008.0
20260505004745 16 235 11.3 20.9 0.00 0.00 0.00 53 1008.0
20260505004347 16 238 11.3 22.5 0.00 0.00 0.00 53 1007.9
20260505003545 17 223 12.9 24.1 0.00 0.00 0.00 52 1007.9
20260505003347 17 237 12.9 24.1 0.00 0.00 0.00 51 1007.9
20260505002345 17 240 11.3 25.7 0.00 0.00 0.00 50 1007.9
20260505001346 17 184 11.3 24.1 0.00 0.00 0.00 49 1007.8
20260505001145 17 219 11.3 22.5 0.00 0.00 0.00 48 1007.7
20260505000346 17 236 11.3 16.1 0.00 0.00 0.00 48 1007.8
20260504235945 17 222 12.9 22.5 0.00 0.00 0.00 47 1007.8
20260504235351 18 233 11.3 25.7 0.00 0.00 0.00 46 1007.9
20260504234745 18 254 9.7 20.9 0.00 0.00 0.00 46 1007.9
20260504234346 18 259 9.7 22.5 0.00 0.00 0.00 46 1007.8
20260504233545 18 244 9.7 20.9 0.00 0.00 0.00 45 1007.8
20260504233347 18 196 9.7 20.9 0.00 0.00 0.00 45 1007.8
20260504232345 18 225 8.0 17.7 0.00 0.00 0.00 45 1007.9
20260504231346 19 228 9.7 19.3 0.00 0.00 0.00 44 1007.9
20260504231145 19 214 9.7 20.9 0.00 0.00 0.00 44 1007.9
20260504230346 19 248 9.7 19.3 0.00 0.00 0.00 43 1008.0
20260504225945 20 225 8.0 20.9 0.00 0.00 0.00 44 1008.0
20260504225346 20 261 9.7 12.9 0.00 0.00 0.00 43 1008.0
20260504224745 20 192 9.7 20.9 0.00 0.00 0.00 42 1008.0
20260504224347 20 215 9.7 22.5 0.00 0.00 0.00 42 1008.0
20260504223545 20 183 11.3 22.5 0.00 0.00 0.00 44 1008.0
20260504223348 20 242 9.7 22.5 0.00 0.00 0.00 43 1008.0
20260504222346 20 232 9.7 17.7 0.00 0.00 0.00 43 1008.0
20260504221347 20 200 9.7 22.5 0.00 0.00 0.00 42 1008.0
20260504221146 20 189 9.7 22.5 0.00 0.00 0.00 41 1008.0
20260504220347 20 206 8.0 17.7 0.00 0.00 0.00 41 1008.0
20260504215945 20 228 8.0 14.5 0.00 0.00 0.00 42 1008.0
20260504215354 20 236 9.7 14.5 0.00 0.00 0.00 44 1008.1
20260504214746 20 242 11.3 22.5 0.00 0.00 0.00 41 1008.0
20260504214347 20 167 9.7 22.5 0.00 0.00 0.00 41 1008.0
20260504213546 20 232 9.7 22.5 0.00 0.00 0.00 41 1008.0
20260504213347 20 219 12.9 22.5 0.00 0.00 0.00 43 1008.0
20260504212346 20 233 14.5 27.4 0.00 0.00 0.00 41 1008.1
20260504211347 20 215 11.3 19.3 0.00 0.00 0.00 41 1008.0
20260504211146 20 227 11.3 19.3 0.00 0.00 0.00 41 1008.1
20260504210349 21 239 9.7 27.4 0.00 0.00 0.00 41 1008.0
20260504205946 21 184 9.7 24.1 0.00 0.00 0.00 40 1008.1
20260504205349 21 236 9.7 22.5 0.00 0.00 0.00 39 1007.9
20260504204746 20 199 11.3 20.9 0.00 0.00 0.00 40 1008.2
20260504204347 21 220 11.3 24.1 0.00 0.00 0.00 41 1008.1
20260504203546 21 213 12.9 20.9 0.00 0.00 0.00 40 1008.1
20260504203347 21 247 12.9 20.9 0.00 0.00 0.00 41 1008.1
20260504202346 21 265 16.1 27.4 0.00 0.00 0.00 38 1008.2
20260504201347 21 240 14.5 29.0 0.00 0.00 0.00 38 1008.3
20260504201146 21 228 12.9 27.4 0.00 0.00 0.00 38 1008.4
20260504200347 20 237 17.7 27.4 0.00 0.00 0.00 39 1008.5
20260504195946 20 262 19.3 27.4 0.00 0.00 0.00 38 1008.6
20260504195347 20 233 16.1 29.0 0.00 0.00 0.00 40 1008.7
20260504194746 20 212 16.1 24.1 0.00 0.00 0.00 39 1008.8
20260504194347 20 238 16.1 32.2 0.00 0.00 0.00 38 1008.8
20260504193546 20 243 16.1 25.7 0.00 0.00 0.00 40 1008.9
20260504193347 20 238 17.7 25.7 0.00 0.00 0.00 39 1008.9
20260504192346 20 255 17.7 25.7 0.00 0.00 0.00 42 1009.2
20260504191347 20 242 17.7 27.4 0.00 0.00 0.00 40 1009.3
20260504191146 20 246 17.7 27.4 0.00 0.00 0.00 42 1009.2
20260504190348 20 224 16.1 24.1 0.00 0.00 0.00 39 1009.3
20260504185946 20 223 16.1 27.4 0.00 0.00 0.00 40 1009.5
20260504185349 20 250 16.1 25.7 0.00 0.00 0.00 39 1009.5
20260504184746 20 230 19.3 29.0 0.00 0.00 0.00 42 1009.6
20260504184347 20 258 17.7 30.6 0.00 0.00 0.00 39 1009.6
20260504183546 20 259 12.9 20.9 0.00 0.00 0.00 40 1009.6
20260504183347 20 243 12.9 19.3 0.00 0.00 0.00 42 1009.7
20260504182346 19 245 14.5 24.1 0.00 0.00 0.00 42 1009.7
20260504181347 19 246 12.9 30.6 0.00 0.00 0.00 41 1009.9
20260504181146 19 240 12.9 30.6 0.00 0.00 0.00 40 1009.9
20260504180347 19 234 11.3 24.1 0.00 0.00 0.00 42 1010.0
20260504175946 19 192 12.9 22.5 0.00 0.00 0.00 42 1010.1
20260504175346 18 279 17.7 22.5 0.00 0.00 0.00 41 1010.3
20260504174746 18 246 17.7 27.4 0.00 0.00 0.00 41 1010.3
20260504174348 18 237 14.5 24.1 0.00 0.00 0.00 44 1010.4
20260504173546 18 236 14.5 25.7 0.00 0.00 0.00 42 1010.4
20260504173347 18 236 12.9 24.1 0.00 0.00 0.00 43 1010.5
20260504172346 18 216 12.9 17.7 0.00 0.00 0.00 43 1010.6
20260504171347 18 238 16.1 30.6 0.00 0.00 0.00 42 1010.8
20260504171146 18 236 16.1 30.6 0.00 0.00 0.00 40 1010.9
20260504170347 18 252 12.9 25.7 0.00 0.00 0.00 41 1010.9
20260504160347 17 288 11.3 20.9 0.00 0.00 0.00 47 1011.8
20260504151146 16 259 11.3 19.3 0.00 0.00 0.00 48 1012.3
20260504150347 15 243 12.9 16.1 0.00 0.00 0.00 47 1012.4
20260504141146 13 253 8.0 16.1 0.00 0.00 0.00 58 1012.5
20260504140348 13 241 8.0 17.7 0.00 0.00 0.00 57 1012.6
20260504130351 10 233 9.7 19.3 0.00 0.00 0.00 65 1012.8
20260504110348 7 181 6.4 11.3 0.00 0.00 0.00 64 1013.0
20260504100347 7 233 8.0 12.9 0.00 0.00 0.00 56 1013.2
20260504081353 8 244 8.0 12.9 0.00 0.00 0.00 51 1013.3
20260504081147 8 252 8.0 11.3 0.00 0.00 0.00 51 1013.4
20260504080347 8 244 8.0 11.3 0.00 0.00 0.00 52 1013.4
20260504070348 8 225 8.0 9.7 0.00 0.00 0.00 52 1013.5
20260504050349 8 242 6.4 12.9 0.00 0.00 0.00 51 1013.8
20260504045947 8 246 8.0 12.9 0.00 0.00 0.00 51 1013.8
20260504045348 8 248 8.0 12.9 0.00 0.00 0.00 51 1013.8
20260504044747 8 242 6.4 8.0 0.00 0.00 0.00 52 1013.8
20260504044348 8 247 8.0 11.3 0.00 0.00 0.00 52 1013.8
20260504043547 8 233 8.0 12.9 0.00 0.00 0.00 51 1013.8
20260504043348 8 236 8.0 12.9 0.00 0.00 0.00 50 1013.8
20260504042347 9 246 6.4 8.0 0.00 0.00 0.00 50 1013.7
20260504041348 8 239 6.4 9.7 0.00 0.00 0.00 50 1013.6
20260504041147 8 242 6.4 8.0 0.00 0.00 0.00 51 1013.5